Weather History for KMTN - March, 2014

Change the Weather History Date:

Tuesday, March 18, 2014

  Actual Average Record
Temperature  
Mean Temperature 38 °F -  
Max Temperature 44 °F 49 °F 80 °F (2011)
Min Temperature 32 °F 33 °F 28 °F (2005)
Degree Days  
Heating Degree Days 27    
Moisture  
Dew Point 23 °F    
Average Humidity 61    
Maximum Humidity 81    
Minimum Humidity 46    
Precipitation  
Precipitation 0.00 in - - ()
Sea Level Pressure  
Sea Level Pressure 30.19 in    
Wind  
Wind Speed 4 mph (NE)    
Max Wind Speed 12 mph    
Max Gust Speed -    
Visibility 10 miles    
Events      
Averages and records for this station are not official NWS values.
T = Trace of Precipitation, MM = Missing Value Source: NWS Daily Summary

Daily Weather History Graph

Daily Weather History Graph

Search for Another Location

Airport or City:

Trip Planner

Search our weather history database for the weather conditions in past years. The results will help you decide how hot, cold, wet, or windy it might be!

Date:

Astronomy

Mar. 18, 2014 Rise Set
Actual Time 7:12 AM EDT 7:15 PM EDT
Civil Twilight 6:45 AM EDT 7:42 PM EDT
Nautical Twilight 6:14 AM EDT 8:13 PM EDT
Astronomical Twilight 5:42 AM EDT 8:45 PM EDT
Moon 9:29 PM EDT (3/18) 8:01 AM EDT (3/18)
Length of Visible Light 12h 56m
Length of Day
12h 03m
Waning Gibbous, 96% of the Moon is Illuminated
Mar 18
Waning Gibbous
Mar 23
Last Quarter
Mar 30
New
Apr 7
First Quarter
Apr 15
Full

Hourly Weather History & Observations

Time (EDT) Temp. Windchill Dew Point Humidity Pressure Visibility Wind Dir Wind Speed Gust Speed Precip Events Conditions
12:09 AM 32.0 °F 28.7 °F 21.2 °F 64% 30.13 in 10.0 mi NE 3.5 mph - N/A   Overcast
12:30 AM 32.0 °F 28.7 °F 21.2 °F 64% 30.13 in 10.0 mi NE 3.5 mph - N/A   Overcast
12:51 AM 32.0 °F 26.4 °F 21.2 °F 64% 30.13 in 10.0 mi NE 5.8 mph - N/A   Overcast
1:09 AM 32.0 °F 28.7 °F 21.2 °F 64% 30.13 in 10.0 mi ENE 3.5 mph - N/A   Overcast
1:30 AM 32.0 °F - 21.2 °F 64% 30.12 in 10.0 mi Calm Calm - N/A   Mostly Cloudy
1:51 AM 32.0 °F - 21.2 °F 64% 30.13 in 10.0 mi Calm Calm - N/A   Overcast
2:09 AM 32.0 °F - 21.2 °F 64% 30.14 in 10.0 mi Calm Calm - N/A   Overcast
2:30 AM 32.0 °F 28.7 °F 19.4 °F 60% 30.13 in 10.0 mi NNE 3.5 mph - N/A   Overcast
2:51 AM 32.0 °F - 19.4 °F 60% 30.14 in 10.0 mi Calm Calm - N/A   Overcast
3:09 AM 32.0 °F 28.7 °F 19.4 °F 60% 30.14 in 10.0 mi North 3.5 mph - N/A   Overcast
3:30 AM 32.0 °F - 19.4 °F 60% 30.13 in 10.0 mi Calm Calm - N/A   Overcast
3:51 AM 32.0 °F 28.7 °F 19.4 °F 60% 30.13 in 10.0 mi North 3.5 mph - N/A   Overcast
4:09 AM 32.0 °F - 21.2 °F 64% 30.13 in 10.0 mi Calm Calm - N/A   Overcast
4:30 AM 32.0 °F - 19.4 °F 60% 30.14 in 10.0 mi Calm Calm - N/A   Overcast
4:51 AM 32.0 °F 28.7 °F 19.4 °F 60% 30.13 in 10.0 mi North 3.5 mph - N/A   Overcast
5:09 AM 32.0 °F 28.7 °F 19.4 °F 60% 30.11 in 10.0 mi North 3.5 mph - N/A   Overcast
5:27 AM 32.0 °F 28.7 °F 19.4 °F 60% 30.11 in 10.0 mi North 3.5 mph - N/A   Overcast
5:55 AM 32.0 °F - 17.6 °F 55% 30.13 in 10.0 mi Calm Calm - N/A   Overcast
6:45 AM 32.0 °F 23.6 °F 17.6 °F 55% 30.18 in 10.0 mi NE 10.4 mph - N/A   Overcast
7:50 AM 33.8 °F 25.8 °F 17.6 °F 52% 30.20 in 10.0 mi NE 10.4 mph - N/A   Overcast
8:45 AM 33.8 °F 25.3 °F 19.4 °F 56% 30.20 in 10.0 mi NNE 11.5 mph - N/A   Mostly Cloudy
9:55 AM 35.6 °F 30.7 °F 19.4 °F 52% 30.20 in 10.0 mi NE 5.8 mph - N/A   Mostly Cloudy
10:45 AM 37.4 °F 32.1 °F 23.0 °F 56% 30.21 in 10.0 mi ENE 6.9 mph - N/A   Overcast
11:55 AM 37.4 °F 33.8 °F 24.8 °F 60% 30.22 in 10.0 mi NE 4.6 mph - N/A   Mostly Cloudy
12:45 PM 39.2 °F 33.0 °F 24.8 °F 56% 30.22 in 10.0 mi ENE 9.2 mph - N/A   Mostly Cloudy
1:45 PM 39.2 °F 33.6 °F 24.8 °F 56% 30.25 in 10.0 mi ENE 8.1 mph - N/A   Mostly Cloudy
2:50 PM 42.8 °F 40.1 °F 24.8 °F 49% 30.23 in 10.0 mi NNE 4.6 mph - N/A   Mostly Cloudy
3:50 PM 42.8 °F 38.6 °F 24.8 °F 49% 30.23 in 10.0 mi NNE 6.9 mph - N/A   Mostly Cloudy
4:45 PM 44.6 °F 41.4 °F 24.8 °F 46% 30.23 in 10.0 mi NE 5.8 mph - N/A   Mostly Cloudy
5:45 PM 42.8 °F 38.6 °F 26.6 °F 53% 30.23 in 10.0 mi ENE 6.9 mph - N/A   Overcast
6:45 PM 42.8 °F 41.1 °F 26.6 °F 53% 30.23 in 10.0 mi NE 3.5 mph - N/A   Mostly Cloudy
7:55 PM 42.8 °F 41.1 °F 26.6 °F 53% 30.23 in 10.0 mi NE 3.5 mph - N/A   Mostly Cloudy
9:45 PM 39.2 °F 34.2 °F 32.0 °F 75% 30.28 in 10.0 mi SE 6.9 mph - N/A   Mostly Cloudy
10:12 PM 37.4 °F 33.8 °F 32.0 °F 81% 30.28 in 10.0 mi East 4.6 mph - N/A   Mostly Cloudy
10:33 PM 37.4 °F 33.8 °F 32.0 °F 81% 30.27 in 10.0 mi East 4.6 mph - N/A   Overcast
10:51 PM 37.4 °F 32.8 °F 32.0 °F 81% 30.27 in 10.0 mi East 5.8 mph - N/A   Overcast
11:12 PM 37.4 °F 31.4 °F 30.2 °F 75% 30.27 in 10.0 mi NE 8.1 mph - N/A   Overcast
11:33 PM 37.4 °F 32.1 °F 28.4 °F 70% 30.25 in 10.0 mi NE 6.9 mph - N/A   Mostly Cloudy
11:54 PM 37.4 °F 32.8 °F 28.4 °F 70% 30.25 in 10.0 mi NE 5.8 mph - N/A   Overcast